This is the latest recevied weather packets stored in our database for station/object HS5AU-13. If no packets are shown the sender has not sent any weather packets the latest 10 day(s).
| Time | Temp. | Humidity | Pressure | Rain* | Wind** | Luminosity | Snow |
|---|---|---|---|---|---|---|---|
| 1787896499 | 26.11° C | 96% | 1000.1 hPa | 0 mm | - | 282 W/m² | - |
| 1787895899 | 26.11° C | 92% | 1000.4 hPa | 0 mm | - | 308 W/m² | - |
| 1787895299 | 26.67° C | 93% | 1000.6 hPa | 0 mm | - | 439 W/m² | - |
| 1787894699 | 26.11° C | 86% | 1001.2 hPa | 0 mm | - | 437 W/m² | - |
| 1787894099 | 26.11° C | 91% | 1001 hPa | 0 mm | - | 538 W/m² | - |
| 1787893499 | 25.56° C | 94% | 1001.1 hPa | 0 mm | - | 342 W/m² | - |
| 1787892899 | 25° C | 98% | 1001.6 hPa | 0 mm | - | 614 W/m² | - |
| 1787892299 | 25.56° C | 96% | 1001.4 hPa | 0 mm | - | 337 W/m² | - |
| 1787891699 | 25° C | 97% | 1001.4 hPa | 0 mm | - | 426 W/m² | - |
| 1787891099 | 25° C | 97% | 1001.4 hPa | 0 mm | - | 204 W/m² | - |
| 1787890499 | 26.11° C | 92% | 1001.3 hPa | 0 mm | - | 385 W/m² | - |
| 1787889899 | 25.56° C | 93% | 1001.2 hPa | 0 mm | - | 614 W/m² | - |
| 1787889299 | 25° C | 99% | 1001.7 hPa | 0 mm | - | 1174 W/m² | - |
| 1787888699 | 24.44° C | 94% | 1001.7 hPa | 0 mm | - | 373 W/m² | - |
| 1787888099 | 23.89° C | 99% | 1002.2 hPa | 0 mm | - | 238 W/m² | - |
| 1787887499 | 22.78° C | 99% | 1003.3 hPa | 0 mm | - | 276 W/m² | - |
| 1787886899 | 22.78° C | 99% | 1003.5 hPa | 0 mm | - | 151 W/m² | - |
| 1787886299 | 22.78° C | 99% | 1003 hPa | 0 mm | - | 83 W/m² | - |
| 1787885699 | 23.33° C | 99% | 1003.1 hPa | 0 mm | - | 209 W/m² | - |
| 1787885099 | 22.78° C | 99% | 1004.2 hPa | 0 mm | - | 249 W/m² | - |
| 1787884499 | 22.78° C | 99% | 1004.7 hPa | 0 mm | - | 219 W/m² | - |
| 1787883899 | 22.78° C | 99% | 1004.9 hPa | 0 mm | - | 120 W/m² | - |
| 1787883299 | 22.78° C | 99% | 1004.9 hPa | 0 mm | - | 205 W/m² | - |
| 1787882699 | 22.78° C | 99% | 1004.8 hPa | 0 mm | - | 112 W/m² | - |
| 1787882099 | 22.22° C | 99% | 1004.5 hPa | 0 mm | - | 112 W/m² | - |
* Rain latest hour (hover to see other rain measurements)
** Current wind speed in m/s (hover to see current wind gust speed)